| time (UTC) | temp F | wind direction | speed MPH | gust MPH | rain 1hr in | rain 24hr in | rain mn in | humidity % | barometer mb |
| 20260505070004 | 60 | 317 | 1.0 | 5.0 | 0.00 | 0.00 | 0.00 | 43 | 1012.5 |
| 20260505065003 | 60 | 322 | 1.0 | 4.0 | 0.00 | 0.00 | 0.00 | 43 | 1012.4 |
| 20260505064003 | 60 | 325 | 1.0 | 5.0 | 0.00 | 0.00 | 0.00 | 45 | 1012.5 |
| 20260505063003 | 59 | 325 | 1.0 | 4.0 | 0.00 | 0.00 | 0.00 | 47 | 1012.5 |
| 20260505062003 | 58 | 333 | 0.0 | 3.0 | 0.00 | 0.00 | 0.00 | 49 | 1012.4 |
| 20260505061003 | 60 | 319 | 1.0 | 6.0 | 0.00 | 0.00 | 0.00 | 47 | 1012.3 |
| 20260505060003 | 60 | 314 | 2.0 | 7.0 | 0.00 | 0.00 | 0.00 | 47 | 1012.3 |
| 20260505055003 | 60 | 310 | 2.0 | 6.0 | 0.00 | 0.00 | 0.00 | 48 | 1012.3 |
| 20260505054003 | 60 | 310 | 2.0 | 7.0 | 0.00 | 0.00 | 0.00 | 48 | 1012.2 |
| 20260505053004 | 61 | 310 | 2.0 | 7.0 | 0.00 | 0.00 | 0.00 | 47 | 1012.3 |
| 20260505052003 | 61 | 309 | 2.0 | 8.0 | 0.00 | 0.00 | 0.00 | 47 | 1012.2 |
| 20260505051003 | 61 | 312 | 3.0 | 7.0 | 0.00 | 0.00 | 0.00 | 47 | 1012.2 |
| 20260505041003 | 63 | 313 | 1.0 | 8.0 | 0.00 | 0.00 | 0.00 | 37 | 1011.7 |
| 20260505040004 | 63 | 315 | 2.0 | 8.0 | 0.00 | 0.00 | 0.00 | 37 | 1011.6 |
| 20260505035004 | 63 | 343 | 1.0 | 4.0 | 0.00 | 0.00 | 0.00 | 37 | 1011.5 |
| 20260505034003 | 64 | 340 | 2.0 | 4.0 | 0.00 | 0.00 | 0.00 | 36 | 1011.3 |
| 20260505033003 | 66 | 355 | 2.0 | 4.0 | 0.00 | 0.00 | 0.00 | 35 | 1011.3 |
| 20260505032213 | 66 | 1 | 3.0 | 6.0 | 0.00 | 0.00 | 0.00 | 34 | 1011.2 |
| 20260505031004 | 67 | 360 | 3.0 | 7.0 | 0.00 | 0.00 | 0.00 | 33 | 1011.2 |
| 20260505030003 | 68 | 5 | 3.0 | 8.0 | 0.00 | 0.00 | 0.00 | 32 | 1011.0 |
| 20260505025004 | 69 | 3 | 3.0 | 6.0 | 0.00 | 0.00 | 0.00 | 31 | 1010.9 |
| 20260505024003 | 69 | 1 | 2.0 | 7.0 | 0.00 | 0.00 | 0.00 | 31 | 1010.8 |
| 20260505023003 | 69 | 6 | 3.0 | 8.0 | 0.00 | 0.00 | 0.00 | 32 | 1010.7 |
| 20260505022003 | 69 | 5 | 2.0 | 6.0 | 0.00 | 0.00 | 0.00 | 32 | 1010.7 |
| 20260505021214 | 69 | 11 | 2.0 | 8.0 | 0.00 | 0.00 | 0.00 | 32 | 1010.7 |
| 20260505020214 | 69 | 13 | 4.0 | 10.0 | 0.00 | 0.00 | 0.00 | 32 | 1010.7 |
| 20260505015003 | 70 | 14 | 5.0 | 12.0 | 0.00 | 0.00 | 0.00 | 30 | 1010.7 |
| 20260505014003 | 70 | 6 | 4.0 | 10.0 | 0.00 | 0.00 | 0.00 | 29 | 1010.7 |
| 20260505013003 | 70 | 5 | 4.0 | 8.0 | 0.00 | 0.00 | 0.00 | 25 | 1010.7 |
| 20260505012003 | 71 | 360 | 2.0 | 8.0 | 0.00 | 0.00 | 0.00 | 25 | 1010.8 |
| 20260505011003 | 71 | 350 | 0.0 | 4.0 | 0.00 | 0.00 | 0.00 | 25 | 1010.8 |
| 20260505010003 | 72 | 320 | 0.0 | 2.0 | 0.00 | 0.00 | 0.00 | 25 | 1010.8 |
| 20260505005004 | 72 | 319 | 2.0 | 6.0 | 0.00 | 0.00 | 0.00 | 25 | 1010.8 |
| 20260505004003 | 72 | 311 | 0.0 | 5.0 | 0.00 | 0.00 | 0.00 | 26 | 1010.8 |
| 20260505003003 | 71 | 357 | 1.0 | 5.0 | 0.00 | 0.00 | 0.00 | 29 | 1010.8 |
| 20260505002003 | 71 | 300 | 3.0 | 4.0 | 0.00 | 0.00 | 0.00 | 30 | 1010.8 |
| 20260505001214 | 71 | 292 | 1.0 | 4.0 | 0.00 | 0.00 | 0.00 | 31 | 1010.8 |
| 20260505000003 | 71 | 293 | 0.0 | 3.0 | 0.00 | 0.00 | 0.00 | 29 | 1010.7 |
| 20260504235003 | 72 | 0 | 0.0 | 0.0 | 0.00 | 0.00 | 0.00 | 28 | 1010.8 |
| 20260504234003 | 72 | 285 | 0.0 | 3.0 | 0.00 | 0.00 | 0.00 | 27 | 1010.8 |
| 20260504233003 | 72 | 294 | 0.0 | 4.0 | 0.00 | 0.00 | 0.00 | 25 | 1010.8 |
| 20260504232003 | 73 | 310 | 0.0 | 3.0 | 0.00 | 0.00 | 0.00 | 25 | 1010.9 |
| 20260504231003 | 72 | 311 | 1.0 | 5.0 | 0.00 | 0.00 | 0.00 | 25 | 1010.9 |
| 20260504230215 | 72 | 304 | 2.0 | 6.0 | 0.00 | 0.00 | 0.00 | 25 | 1011.0 |
| 20260504225213 | 73 | 291 | 4.0 | 9.0 | 0.00 | 0.00 | 0.00 | 25 | 1011.0 |
| 20260504224003 | 74 | 254 | 5.0 | 11.0 | 0.00 | 0.00 | 0.00 | 24 | 1011.0 |
| 20260504223003 | 74 | 239 | 4.0 | 15.0 | 0.00 | 0.00 | 0.00 | 24 | 1011.1 |
| 20260504222003 | 73 | 233 | 4.0 | 12.0 | 0.00 | 0.00 | 0.00 | 24 | 1011.2 |
| 20260504221003 | 73 | 249 | 5.0 | 12.0 | 0.00 | 0.00 | 0.00 | 24 | 1011.2 |
| 20260504220003 | 74 | 232 | 4.0 | 9.0 | 0.00 | 0.00 | 0.00 | 26 | 1011.3 |
| 20260504215003 | 73 | 272 | 3.0 | 10.0 | 0.00 | 0.00 | 0.00 | 25 | 1011.4 |
| 20260504214003 | 73 | 241 | 4.0 | 10.0 | 0.00 | 0.00 | 0.00 | 25 | 1011.5 |
| 20260504213212 | 73 | 237 | 4.0 | 11.0 | 0.00 | 0.00 | 0.00 | 25 | 1011.6 |
| 20260504212003 | 72 | 241 | 3.0 | 8.0 | 0.00 | 0.00 | 0.00 | 25 | 1011.6 |
| 20260504211003 | 72 | 264 | 6.0 | 12.0 | 0.00 | 0.00 | 0.00 | 25 | 1011.8 |
| 20260504210003 | 73 | 197 | 5.0 | 11.0 | 0.00 | 0.00 | 0.00 | 25 | 1011.8 |
| 20260504205003 | 72 | 255 | 4.0 | 10.0 | 0.00 | 0.00 | 0.00 | 25 | 1012.0 |
| 20260504204003 | 72 | 271 | 3.0 | 11.0 | 0.00 | 0.00 | 0.00 | 26 | 1011.9 |
| 20260504203003 | 72 | 248 | 4.0 | 9.0 | 0.00 | 0.00 | 0.00 | 24 | 1012.1 |
| 20260504202003 | 72 | 156 | 4.0 | 10.0 | 0.00 | 0.00 | 0.00 | 27 | 1012.1 |
| 20260504201003 | 71 | 222 | 4.0 | 11.0 | 0.00 | 0.00 | 0.00 | 25 | 1012.3 |
| 20260504200004 | 72 | 231 | 4.0 | 9.0 | 0.00 | 0.00 | 0.00 | 24 | 1012.4 |
| 20260504195214 | 71 | 266 | 4.0 | 8.0 | 0.00 | 0.00 | 0.00 | 24 | 1012.4 |
| 20260504194214 | 72 | 239 | 3.0 | 11.0 | 0.00 | 0.00 | 0.00 | 24 | 1012.5 |
| 20260504193003 | 72 | 278 | 2.0 | 8.0 | 0.00 | 0.00 | 0.00 | 24 | 1012.6 |
| 20260504192214 | 71 | 343 | 3.0 | 8.0 | 0.00 | 0.00 | 0.00 | 23 | 1012.6 |
| 20260504191003 | 70 | 48 | 7.0 | 13.0 | 0.00 | 0.00 | 0.00 | 25 | 1012.5 |
| 20260504190003 | 70 | 41 | 5.0 | 14.0 | 0.00 | 0.00 | 0.00 | 24 | 1012.7 |
| 20260504185003 | 70 | 23 | 4.0 | 8.0 | 0.00 | 0.00 | 0.00 | 23 | 1012.7 |
| 20260504184003 | 70 | 16 | 5.0 | 11.0 | 0.00 | 0.00 | 0.00 | 25 | 1012.8 |
| 20260504183004 | 70 | 9 | 6.0 | 12.0 | 0.00 | 0.00 | 0.00 | 23 | 1012.7 |
| 20260504182003 | 69 | 11 | 8.0 | 16.0 | 0.00 | 0.00 | 0.00 | 24 | 1012.9 |
| 20260504181003 | 69 | 16 | 7.0 | 15.0 | 0.00 | 0.00 | 0.00 | 25 | 1012.9 |
| 20260504180003 | 69 | 28 | 9.0 | 16.0 | 0.00 | 0.00 | 0.00 | 25 | 1013.0 |
| 20260504175003 | 69 | 16 | 7.0 | 15.0 | 0.00 | 0.00 | 0.00 | 25 | 1012.9 |
| 20260504174003 | 68 | 13 | 8.0 | 13.0 | 0.00 | 0.00 | 0.00 | 26 | 1012.9 |
| 20260504173003 | 68 | 11 | 7.0 | 15.0 | 0.00 | 0.00 | 0.00 | 25 | 1012.9 |
| 20260504172003 | 68 | 13 | 8.0 | 14.0 | 0.00 | 0.00 | 0.00 | 27 | 1012.7 |
| 20260504171003 | 68 | 9 | 8.0 | 18.0 | 0.00 | 0.00 | 0.00 | 24 | 1012.7 |
| 20260504170213 | 68 | 3 | 9.0 | 16.0 | 0.00 | 0.00 | 0.00 | 25 | 1012.8 |
| 20260504160215 | 67 | 350 | 8.0 | 13.0 | 0.00 | 0.00 | 0.00 | 25 | 1012.7 |
| 20260504151003 | 65 | 353 | 5.0 | 10.0 | 0.00 | 0.00 | 0.00 | 27 | 1012.8 |
| 20260504141003 | 63 | 330 | 2.0 | 6.0 | 0.00 | 0.00 | 0.00 | 34 | 1012.5 |
| 20260504081003 | 54 | 352 | 3.0 | 4.0 | 0.00 | 0.00 | 0.00 | 49 | 1012.9 |